"Pseudo-MPEC" for P21XD6Q

Created 2024 Sep 14 16:22:11 UT using Find_Orb

Click here for an explanation of pseudo-MPECs

 
 Astrometry: 
     P21XD6Q* C2024 08 31.50352901 46 53.204-23 49 12.27   ~8VDb 21.92wXNEOCPF52
     P21XD6Q  C2024 08 31.51404901 46 53.475-23 49 16.11   ~8VDb 21.80wXNEOCPF52
     P21XD6Q  C2024 08 31.52457101 46 53.753-23 49 20.13   ~8VDb 22.11wXNEOCPF52
     P21XD6Q  C2024 08 31.60074201 46 55.789-23 49 48.39   ~8VJ7 22.02GVNEOCPF51
     P21XD6Q  C2024 08 31.60156101 46 55.806-23 49 48.61   ~8VJ7 21.93GVNEOCPF51
     P21XD6Q  C2024 09 07.53306801 49 26.295-24 30 13.15   ~9D37 21.87GVNEOCPF51
     P21XD6Q  C2024 09 07.54373101 49 26.387-24 30 16.45   ~9D37 22.31GVNEOCPF51
     P21XD6Q  C2024 09 07.55436201 49 26.458-24 30 19.87   ~9D37 22.39GVNEOCPF51
     P21XD6Q  C2024 09 07.56502201 49 26.575-24 30 23.59   ~9D37 22.27GVNEOCPF51

Station data:
(F51) Pan-STARRS 1, Haleakala  (N20.707234 W156.255910)  US/Hawaii.
   Observers J. Bulger, T. Lowe, A. Schultz, M. Willman. Measurers K.
   Chambers, S. Chastel, T. de Boer, L. Denneau, J. Fairlamb, H. Flewelling,
   M. Huber, C.-C. Lin, E. Magnier, Y. Ramanjooloo, R. Wainscoat, R. Weryk.
   1.8-m Ritchey-Chrétien + CCD.
(F52) Pan-STARRS 2, Haleakala  (N20.707382 W156.255910)  US/Hawaii.
   Observers J. Bulger, T. Dukes, T. Lowe, A. Schultz, M. Willman. Measurers
   K. Chambers, S. Chastel, T. de Boer, L. Denneau, J. Fairlamb, H.
   Flewelling, M. Huber, C.-C. Lin, E. Magnier, Y. Ramanjooloo, R. Wainscoat,
   R. Weryk. 1.8-m Ritchey-Chrétien + CCD.

Orbital elements:  P21XD6Q
   Perihelion 2024 Sep 11.66960 +/- 17.8 TT = 16:04:13 (JD 2460565.16960)
Epoch 2024 Sep  7.0 TT = JDT 2460560.5   Earth MOID: 0.8177      AutoNEOCP
M 359.18725551 +/- 3.2              (J2000 ecliptic)
n   0.17405016 +/- 0.0446           Peri.  278.71853 +/- 13
a   3.17701856 +/- 0.543            Node    80.73463 +/- 4.6
e   0.4529918 +/- 0.0748            Incl.   15.86884 +/- 0.55
P   5.66278                H 20.16  G  0.15   U 10.7
q 1.73785515 +/- 0.0615    Q 4.61618196 +/- 1.03
From 9 observations 2024 Aug. 31-Sept. 7; mean residual 0".12
Residuals in arcseconds: 
240831 F52  .03+  .14-    240831 F51  .14+  .02+    240907 F51  .03+  .12+    
240831 F52  .12-  .02+    240831 F51  .07+  .10+    240907 F51  .21-  .11+    
240831 F52  .16-  .03-    240907 F51  .01-  .03-    240907 F51  .18+  .20-    

Ephemerides (geocentric):
Date (UTC) HH   RA             Dec           delta  r     elong  mag " sig PA
---- --------  ------------   ------------  ------ ------ -----  --- --------
2024 09 14 16  01 49 52.771   -25 03 15.58  .84296 1.7381 140.0 22.0 77.9  95
2024 09 14 17  01 49 52.554   -25 03 25.11  .84286 1.7381 140.0 22.0 78.6  95
2024 09 14 18  01 49 52.333   -25 03 34.61  .84276 1.7381 140.0 22.0 79.3  95
2024 09 14 19  01 49 52.107   -25 03 44.08  .84266 1.7381 140.1 22.0 80.0  95
2024 09 14 20  01 49 51.877   -25 03 53.52  .84256 1.7381 140.1 22.0 80.7  95
2024 09 14 21  01 49 51.643   -25 04 02.93  .84246 1.7381 140.1 22.0 81.5  95
2024 09 14 22  01 49 51.405   -25 04 12.32  .84236 1.7381 140.1 22.0 82.2  95
2024 09 14 23  01 49 51.163   -25 04 21.68  .84226 1.7381 140.1 22.0 82.9  95
2024 09 15 00  01 49 50.917   -25 04 31.01  .84216 1.7381 140.2 22.0 83.7  95
2024 09 15 01  01 49 50.666   -25 04 40.31  .84207 1.7381 140.2 22.0 84.4  95
2024 09 15 02  01 49 50.411   -25 04 49.59  .84197 1.7381 140.2 22.0 85.1  95
2024 09 15 03  01 49 50.152   -25 04 58.83  .84187 1.7381 140.2 22.0 85.9  95
2024 09 15 04  01 49 49.889   -25 05 08.05  .84177 1.7381 140.2 22.0 86.6  95
2024 09 15 05  01 49 49.621   -25 05 17.24  .84167 1.7381 140.3 22.0 87.4  95
2024 09 15 06  01 49 49.350   -25 05 26.40  .84158 1.7381 140.3 22.0 88.1  95
2024 09 15 07  01 49 49.074   -25 05 35.53  .84148 1.7381 140.3 22.0 88.9  95
2024 09 15 08  01 49 48.794   -25 05 44.64  .84138 1.7382 140.3 22.0 89.7  95
2024 09 15 09  01 49 48.509   -25 05 53.71  .84129 1.7382 140.3 22.0 90.4  95
2024 09 15 10  01 49 48.221   -25 06 02.76  .84119 1.7382 140.3 22.0 91.2  95
2024 09 15 11  01 49 47.929   -25 06 11.77  .84110 1.7382 140.4 22.0 92.0  95
2024 09 15 12  01 49 47.632   -25 06 20.76  .84100 1.7382 140.4 22.0 92.7  95
2024 09 15 13  01 49 47.331   -25 06 29.72  .84090 1.7382 140.4 22.0 93.5  95
2024 09 15 14  01 49 47.026   -25 06 38.65  .84081 1.7382 140.4 22.0 94.3  95
2024 09 15 15  01 49 46.717   -25 06 47.56  .84071 1.7382 140.4 22.0 95.1  95
2024 09 15 16  01 49 46.403   -25 06 56.43  .84062 1.7382 140.5 22.0 95.9  95
2024 09 15 17  01 49 46.086   -25 07 05.27  .84052 1.7382 140.5 22.0 96.7  95
2024 09 15 18  01 49 45.764   -25 07 14.09  .84043 1.7382 140.5 22.0 97.5  95
2024 09 15 19  01 49 45.438   -25 07 22.87  .84034 1.7382 140.5 22.0 98.3  95
2024 09 15 20  01 49 45.108   -25 07 31.63  .84024 1.7382 140.5 22.0   99  95
2024 09 15 21  01 49 44.774   -25 07 40.36  .84015 1.7382 140.6 22.0  100  95
2024 09 15 22  01 49 44.436   -25 07 49.05  .84005 1.7383 140.6 22.0  101  95
2024 09 15 23  01 49 44.093   -25 07 57.72  .83996 1.7383 140.6 22.0  101  95
2024 09 16 00  01 49 43.747   -25 08 06.36  .83987 1.7383 140.6 22.0  102  95
2024 09 16 01  01 49 43.396   -25 08 14.97  .83977 1.7383 140.6 22.0  103  95
2024 09 16 02  01 49 43.041   -25 08 23.55  .83968 1.7383 140.7 22.0  104  95
2024 09 16 03  01 49 42.682   -25 08 32.10  .83959 1.7383 140.7 22.0  105  95
2024 09 16 04  01 49 42.319   -25 08 40.62  .83950 1.7383 140.7 22.0  106  95
2024 09 16 05  01 49 41.952   -25 08 49.11  .83941 1.7383 140.7 22.0  106  95
2024 09 16 06  01 49 41.580   -25 08 57.57  .83931 1.7383 140.7 22.0  107  95
2024 09 16 07  01 49 41.205   -25 09 06.00  .83922 1.7383 140.8 22.0  108  96
2024 09 16 08  01 49 40.825   -25 09 14.40  .83913 1.7383 140.8 22.0  109  96
2024 09 16 09  01 49 40.441   -25 09 22.77  .83904 1.7383 140.8 22.0  110  96
2024 09 16 10  01 49 40.053   -25 09 31.12  .83895 1.7384 140.8 22.0  111  96
2024 09 16 11  01 49 39.661   -25 09 39.43  .83886 1.7384 140.8 22.0  112  96
2024 09 16 12  01 49 39.265   -25 09 47.71  .83877 1.7384 140.9 22.0  112  96
2024 09 16 13  01 49 38.865   -25 09 55.96  .83868 1.7384 140.9 22.0  113  96
2024 09 16 14  01 49 38.461   -25 10 04.18  .83859 1.7384 140.9 22.0  114  96
2024 09 16 15  01 49 38.052   -25 10 12.37  .83850 1.7384 140.9 22.0  115  96